Location: Fort Worth, Tx
(32.7431°N, 97.3695°W)
Time: 23:49:18
(UTC-04:00)

A-11 Canister half - Pass Details

Date: 23 February 2024
Orbit: 1525 x 1683 km, 47.3° (Epoch: 24 April)

Event Time Altitude Azimuth Distance (km) Brightness Sun altitude
Rises 19:47:22 0° 189° (S) 4,823 11.8 -6.2°
Reaches altitude 10° 19:51:16 10° 177° (S) 3,813 11.1 -7.0°
Maximum altitude 19:58:36 25° 127° (SE) 2,778 10.0 -8.5°
Enters shadow 20:05:18 11° 79° (ENE) 3,632 10.3 -9.9°
